Weather in Kolovo

Russia / Republic of Karelia     61°48′06″N   36°47′32″E
temp.,
°C
wind,
m/s
gust,
m/s
humid.,
%
clouds,
%
prec.,
mm/h
press.,
hPa
HPBL,
m
5 august, thu
thu500:00+14w2663100 0.0 1014295
03:00+13nw0068100 0.0 101512
06:00+13ene116992 0.0 101659
09:00+17e115430 0.0 1017652
12:00+19w1341100 0.2 10172220
15:00+19w124268 0.2 10181110
18:00+19nne113780 0.0 10171551
21:00+15se115795 0.0 101814
6 august, fri
fri600:00+12ene236759 0.0 101857
03:00+11ene267499 0.0 1019132
06:00+13ene3969100 0.0 1019319
09:00+15ene3757100 0.0 1019570
12:00+20e4638100 0.0 10192346
15:00+19ese4641100 0.0 10182226
18:00+18ese36496 0.0 10181052
21:00+11e248088 0.0 101997
7 august, sat
sat700:00+13ene287581 0.0 1019292
03:00+13ene3974100 0.0 1019358
06:00+13ene4127235 0.0 1019713
09:00+17e5115790 0.0 10191107
12:00+18e51155100 0.0 10191100
15:00+21e694397 0.0 10171708
18:00+19e5950100 0.0 10171312
21:00+17e4105794 0.0 1017953
8 august, sun
sun800:00+15e41262100 0.1 1016805
03:00+15e51369100 0.3 1015847
06:00+14e61485100 0.3 1015915
09:00+13e61591100 0.7 1014885
12:00+14e61286100 0.1 1014906
15:00+13ene51288100 0.1 1015807
18:00+12ene51193100 0.3 1014716
21:00+11ene41096100 0.6 1014555
9 august, mon
mon900:00+11ene3997100 0.4 1014469
03:00+11ene3898100 1.2 1014452
06:00+11ne2798100 0.0 1015413
09:00+12ene3796100 0.0 1016445
12:00+13e3689100 0.0 1017555
15:00+15e368496 0.1 1018684
18:00+16ese367490 0.0 1017805
21:00+12se129599 0.0 101719